This demonstration page uses our WeatherBlox Daily Observations layout. Learn more.

Left ArrowRight Arrow

38.83388, -104.82136

Hourly Observations for April 17, 2022

Temp ( °F °C ) Dew Point ( °F °C ) Humidity (%) Winds ( mph kmh ) Pressure ( in mb ) Visibility ( mi km ) Precip ( " mm )
12:58 am 00:58 Cloudy 33 0.6 21 -6.1 61 61 Calm 29.64 1004 10 16 0.00 0.00
1:58 am 01:58 undefined N/A N/A N/A undefined N/A N/A 10 16 0.00 0.00
2:58 am 02:58 undefined N/A N/A N/A Calm N/A N/A 0.00 0.00
3:58 am 03:58 Clear 41 5.2 22 -5.5 46 46 SW 6 9 29.61 1003 10 16 0.00 0.00
4:58 am 04:58 Clear 45 7.1 21 -6.3 38 38 E 3 6 29.66 1004 10 16 0.00 0.00
5:58 am 05:58 Clear 42 5.7 18 -7.9 37 37 SSE 6 9 29.64 1004 10 16 0.00 0.00
6:58 am 06:58 Sunny 46 7.5 20 -6.6 36 36 ENE 5 7 29.70 1006 10 16 0.00 0.00
7:58 am 07:58 Sunny 49 9.7 21 -6.2 32 32 E 8 13 29.76 1008 10 16 0.00 0.00
8:58 am 08:58 Sunny 51 10.8 19 -7 28 28 NE 8 13 29.80 1009 10 16 0.00 0.00
9:58 am 09:58 Sunny 55 12.6 20 -6.9 25 25 NE 8 13 29.84 1011 10 16 0.00 0.00
10:58 am 10:58 Sunny 57 13.7 18 -7.7 22 22 E 10 17 29.86 1011 10 16 0.00 0.00
11:58 am 11:58 Sunny 62 16.7 18 -7.8 18 18 ENE 9 15 29.86 1011 10 16 0.00 0.00
12:58 pm 12:58 Sunny 62 16.8 15 -9.2 16 16 NE 12 19 29.91 1013 10 16 0.00 0.00
1:42 pm 13:42 Sunny 64 18 12 -11 13 13 W 13 20 29.91 1013 10 16 0.00 0.00
1:43 pm 13:43 Sunny 64 18 12 -11 13 13 SSW 13 20 29.91 1013 10 16 0.00 0.00
1:55 pm 13:55 Sunny 63 17 12 -11 14 14 WNW 22 35 29.85 1011 10 16 0.00 0.00
1:58 pm 13:58 Sunny 63 17.4 12 -11.3 13 13 W 12 19 29.87 1012 10 16 0.00 0.00
2:21 pm 14:21 Sunny 64 18 10 -12 12 12 NW 16 26 29.86 1011 10 16 0.00 0.00
2:48 pm 14:48 Sunny 64 18 10 -12 12 12 N 15 24 29.85 1011 10 16 0.00 0.00
2:58 pm 14:58 Sunny 65 18.1 11 -11.8 12 12 W 13 20 29.88 1012 10 16 0.00 0.00
2:59 pm 14:59 Sunny 64 18 10 -12 12 12 NNW 12 19 29.88 1012 10 16 0.00 0.00
3:28 pm 15:28 Sunny 64 18 12 -11 13 13 NNE 15 24 29.88 1012 10 16 0.00 0.00
3:58 pm 15:58 Sunny 65 18.2 13 -10.7 13 13 NW 7 11 29.85 1011 10 16 0.00 0.00
4:58 pm 16:58 Sunny 64 17.5 12 -11.3 13 13 NW 13 20 29.87 1011 10 16 0.00 0.00
5:58 pm 17:58 Sunny 61 16 11 -11.5 14 14 WNW 12 19 29.84 1011 10 16 0.00 0.00
6:58 pm 18:58 Mostly Sunny 59 15 14 -9.9 17 17 NE 8 13 29.83 1010 10 16 0.00 0.00
7:58 pm 19:58 Mostly Cloudy 51 10.6 24 -4.6 34 34 W 3 6 29.84 1011 10 16 0.00 0.00
8:58 pm 20:58 Partly Cloudy 48 9 24 -4.2 39 39 Calm 29.88 1012 10 16 0.00 0.00
9:58 pm 21:58 undefined 47 8.5 24 -4.3 40 40 WSW 13 20 29.90 1013 10 16 0.00 0.00
10:58 pm 22:58 Clear 46 7.8 23 -5 40 40 Calm 29.90 1013 10 16 0.00 0.00
11:58 pm 23:58 Clear 44 6.8 23 -5.2 42 42 NW 3 6 29.92 1013 10 16 0.00 0.00

Powered by AerisWeather